COSMOS 2251 DEB, 39109

Orbit data source: Space-Track

COSMOS 2251 DEB, 39109 is space debris in LEO originally from a launch on Wed, 16 Jun 1993 UTC launched from the Plesetsk Missile And Space Complex (PKMTR). The debris from Iridium 33, an American commercial communications satellite, has been tracked extensively since its accidental collision with the defunct Russian satellite Cosmos 2251 in 2009. This event, occurring at high speed in low Earth orbit (LEO), generated thousands of pieces of space debris, significantly increasing the risk of further collisions. The Iridium 33 debris cloud has impacted space traffic management and orbital debris mitigation strategies, making it a subject of ongoing study in space situational awareness.

Loading next visibility...
Identifier
39109, 1993-036BTY
Orbit
LEO
Country
Flag of CISCIS
Related business
Manufacturer
Unknown
Mission
Spacecraft
Bus & Motor
Unknown
Mass
Unknown
Launch date (UTC)
1993-06-16 (33 years ago)
Launch vehicle
Unknown
Launch site
Plesetsk Missile And Space Complex (PKMTR)
Object type
Payload
Rocket body
Debris
Shape & HBR
Unknown shape, 0.1 m
Radar Cross Section
Small (<0.1 m²)

Expand to show TLE details & history
Last TLE update: 6 days ago

TLE from 6 days ago
0 COSMOS 2251 DEB
1 39109U 93036BTY 26157.51372956  .00002572  00000-0  40459-3 0  9993
2 39109  74.0423 243.6339 0058992 302.8740  70.1885 14.71936646677591
Epoch: 2026-06-06T12:19Z
TLE epoch observation values (Epoch: 2026-06-06T12:19:46.233Z)
Latitude
13.13214°
Longitude
167.5674°
Altitude
642.947 km
Speed
7.545 km/s
True Right ascension
16h 29m 45s
True Declination
13° 03' 18"
Sunlit
Object was in full shadow at epoch
Visualization orbit readout
Latitude
Unknown
Longitude
Unknown
Altitude
Unknown
Speed
Unknown
Apparent Right ascension
Unknown
Apparent Declination
Unknown
Sunlit
N/A
Visualization observer readout
Local Sidereal Time
20:52:44
Azimuth
Unknown
Elevation
Unknown
Doppler factor
Unknown
Orbital elements
Apogee altitude
693.951 km
Perigee altitude
611.001 km
Semi-major axis
7,030.613 km
Eccentricity
0.0059
Inclination
74.0423°
RAAN
243.6339°
Arg. of periapsis
302.874°
True anomaly
70.82607°
Mean anomaly
70.1885°
Eccentric anomaly
70.50713°
Mean motion
3.68174 °/min
Orbital period
97.78 mins
BSTAR
0.00040459

Documentation

Showing up to 5 results
|